Weather History for Springfield, VT

Change the Weather History Date:

Tuesday, December 11, 2012

  Actual Average Record
Temperature  
Mean Temperature 37 °F 27 °F  
Max Temperature 44 °F 36 °F 44 °F (2003)
Min Temperature 30 °F 19 °F 8 °F (2007)
Degree Days  
Heating Degree Days 28 38  
Month to date heating degree days 334 394  
Since 1 July heating degree days 1671 2037  
Cooling Degree Days 0 0  
Month to date cooling degree days 0  
Year to date cooling degree days 345  
Moisture  
Dew Point 27 °F    
Average Humidity 73    
Maximum Humidity 92    
Minimum Humidity 54    
Precipitation  
Precipitation T in 0.12 in 1.68 in (2003)
Month to date precipitation 1.22 1.26  
Year to date precipitation 31.72 41.84  
Sea Level Pressure  
Sea Level Pressure 29.87 in    
Wind  
Wind Speed 6 mph (WNW)    
Max Wind Speed 14 mph    
Max Gust Speed 21 mph    
Visibility 10 miles    
Events      
T = Trace of Precipitation, MM = Missing Value Source: NWS Daily Summary

Daily Weather History Graph

Daily Weather History Graph

Search for Another Location

Airport:

Trip Planner

Search our weather history database for the weather conditions in past years. The results will help you decide how hot, cold, wet, or windy it might be!

Date:

Astronomy

Dec. 11, 2012 Rise Set
Actual Time 7:12 AM EST 4:14 PM EST
Civil Twilight 6:40 AM EST 4:46 PM EST
Nautical Twilight 6:04 AM EST 5:22 PM EST
Astronomical Twilight 5:29 AM EST 5:57 PM EST
Moon 5:02 AM EST (12/11) 2:52 PM EST (12/11)
Length of Visible Light 10h 06m
Length of Day
9h 01m
Waning Crescent, 4% of the Moon is Illuminated
Dec 11
Waning Crescent
Dec 13
New
Dec 20
First Quarter
Dec 28
Full
Jan 4
Last Quarter

Hourly Weather History & Observations

Time (EST) Temp. Windchill Dew Point Humidity Pressure Visibility Wind Dir Wind Speed Gust Speed Precip Events Conditions
12:54 AM 42.1 °F - 34.0 °F 73% 29.61 in 10.0 mi Calm Calm - N/A   Overcast
1:54 AM 42.1 °F - 32.0 °F 67% 29.62 in 10.0 mi Calm Calm - N/A   Overcast
2:20 AM 39.2 °F - 33.8 °F 81% 29.63 in 10.0 mi Calm Calm - N/A   Overcast
2:54 AM 39.9 °F - 34.0 °F 79% 29.66 in 10.0 mi Calm Calm - N/A   Overcast
3:54 AM 39.0 °F - 36.0 °F 89% 29.68 in 10.0 mi Calm Calm - N/A   Overcast
4:12 AM 37.4 °F - 35.6 °F 93% 29.67 in 10.0 mi Calm Calm - N/A   Overcast
4:47 AM 37.4 °F - 35.6 °F 93% 29.68 in 10.0 mi Calm Calm - N/A   Overcast
4:54 AM 37.9 °F 35.5 °F 36.0 °F 93% 29.71 in 10.0 mi WSW 3.5 mph - N/A   Overcast
5:50 AM 37.4 °F 32.8 °F 33.8 °F 87% 29.71 in 10.0 mi NW 5.8 mph - 0.00 in   Overcast
5:54 AM 37.9 °F 35.5 °F 33.1 °F 83% 29.73 in 10.0 mi WNW 3.5 mph - 0.00 in   Overcast
6:54 AM 37.9 °F 35.5 °F 30.9 °F 76% 29.75 in 10.0 mi WNW 3.5 mph - N/A   Overcast
7:54 AM 37.0 °F 30.4 °F 30.9 °F 79% 29.79 in 10.0 mi West 9.2 mph - N/A   Overcast
8:54 AM 37.0 °F 28.9 °F 30.0 °F 76% 29.84 in 10.0 mi WNW 12.7 mph 20.7 mph N/A   Scattered Clouds
9:01 AM 37.4 °F 32.1 °F 30.2 °F 75% 29.83 in 10.0 mi WNW 6.9 mph - N/A   Mostly Cloudy
9:54 AM 37.0 °F 30.4 °F 27.0 °F 67% 29.88 in 10.0 mi WNW 9.2 mph - N/A   Overcast
10:20 AM 37.4 °F 30.8 °F 28.4 °F 70% 29.86 in 10.0 mi WNW 9.2 mph - N/A   Mostly Cloudy
10:54 AM 37.9 °F 32.1 °F 27.0 °F 65% 29.88 in 10.0 mi WNW 8.1 mph - N/A   Overcast
11:54 AM 37.0 °F 31.6 °F 24.1 °F 59% 29.90 in 10.0 mi West 6.9 mph 17.3 mph N/A   Overcast
12:54 PM 37.0 °F 31.0 °F 24.1 °F 59% 29.91 in 10.0 mi WNW 8.1 mph - N/A   Overcast
1:54 PM 37.0 °F 34.5 °F 23.0 °F 57% 29.93 in 10.0 mi North 3.5 mph - N/A   Overcast
2:54 PM 37.9 °F 30.9 °F 23.0 °F 55% 29.96 in 10.0 mi West 10.4 mph - N/A   Overcast
3:54 PM 35.1 °F 31.0 °F 23.0 °F 61% 29.98 in 10.0 mi NW 4.6 mph - N/A   Clear
4:54 PM 35.1 °F 32.2 °F 21.9 °F 59% 30.01 in 10.0 mi Variable 3.5 mph - N/A   Overcast
5:54 PM 34.0 °F 28.0 °F 21.9 °F 61% 30.05 in 10.0 mi WNW 6.9 mph 17.3 mph N/A   Overcast
6:54 PM 33.1 °F 27.7 °F 21.0 °F 61% 30.08 in 10.0 mi WNW 5.8 mph - N/A   Overcast
7:54 PM 32.0 °F 26.4 °F 19.9 °F 61% 30.10 in 10.0 mi NW 5.8 mph - N/A   Overcast
8:54 PM 32.0 °F 26.4 °F 19.0 °F 59% 30.11 in 10.0 mi NNW 5.8 mph - N/A   Overcast
9:54 PM 30.9 °F 23.5 °F 19.0 °F 61% 30.14 in 10.0 mi NW 8.1 mph - N/A   Overcast
10:54 PM 30.9 °F 23.5 °F 18.0 °F 59% 30.15 in 10.0 mi NW 8.1 mph - N/A   Mostly Cloudy
11:54 PM 30.9 °F 23.5 °F 17.1 °F 57% 30.18 in 10.0 mi NW 8.1 mph - N/A   Mostly Cloudy